Home > Weather > Wiener Neustadt > Past weeks

Flag for Austria Past Weather in Wiener Neustadt, Lower Austria, Austria — Yesterday and Last 2 Weeks

Now
59 °F

Passing clouds.


Feels Like: 59 °F
Forecast: 53 / 75 °F
Wind: 5 mph from Northwest

Location: Eisenstadt

Current Time: May 26, 2016 at 6:54:58 AM

Latest Report: May 26, 2016 at 6:00 AM


Visibility: 9 mi

Pressure: 29.96 "Hg

Humidity: 80%

Dew Point: 53 °F

Location of Wiener NeustadtLocation

Past Weather in Wiener Neustadt — Graph

°F

Wiener Neustadt Temperature Yesterday

Maximum temperature yesterday: 70 °F (at 5:00 PM)
Minimum temperature yesterday: 57 °F (at 12:00 AM)
Average temperature yesterday: 63 °F

High & Low Weather Summary for the Past Weeks

 TemperatureHumidityPressure
High80 °F (May 23, 4:00 PM)97% (May 12, 5:00 AM)30.13 "Hg (May 12, 5:00 AM)
Low45 °F (May 16, 5:00 AM)35% (May 17, 2:00 PM)29.32 "Hg (May 13, 5:00 AM)
Average59 °F67%29.84 "Hg
* Reported May 11 5:00 AM — May 26 5:00 AM, Wiener Neustadt, Weather by CustomWeather, © 2016

Note: Actual official high and low records may vary slightly from our data, if they occured in-between our weather recording intervals... More about our weather records

Advertising

Wiener Neustadt Weather History for the Previous 24 Hours

Scroll right to see more
 ConditionsComfort  
Time TempWeatherWind HumidityBarometerVisibility
5:00 AM
Thu, May 26
60 °FCool.7 mph77%29.93 "HgN/A
4:00 AM60 °FCool.6 mph76%29.94 "HgN/A
3:00 AM56 °FCool.1 mph85%29.93 "HgN/A
2:00 AM58 °FClear.2 mph83%29.93 "Hg9 mi
1:00 AM59 °FCool.1 mph79%29.93 "HgN/A
12:00 AM61 °FCool.6 mph75%29.93 "HgN/A
11:00 PM
Wed, May 25
60 °FClear.3 mph80%29.92 "Hg9 mi
10:00 PM63 °FMild.5 mph73%29.91 "HgN/A
9:00 PM64 °FMild.5 mph72%29.89 "HgN/A
8:00 PM66 °FSunny.5 mph69%29.87 "Hg9 mi
7:00 PM68 °FPassing clouds.6 mph62%29.85 "Hg12 mi
6:00 PM70 °FMild.5 mph58%29.85 "HgN/A
5:00 PM70 °FPassing clouds.6 mph58%29.85 "Hg12 mi
4:00 PM70 °FMild.6 mph58%29.86 "HgN/A
3:00 PM69 °FMild.7 mph60%29.86 "HgN/A
2:00 PM69 °FPartly sunny.7 mph62%29.86 "Hg12 mi
1:00 PM69 °FMild.6 mph63%29.88 "HgN/A
12:00 PM67 °FMild.5 mph62%29.88 "HgN/A
11:00 AM64 °FOvercast.6 mph66%29.89 "Hg16 mi
10:00 AM62 °FCool.6 mph69%29.89 "HgN/A
9:00 AM60 °FCool.3 mph72%29.88 "HgN/A
8:00 AM59 °FOvercast.5 mph71%29.87 "Hg19 mi
7:00 AM59 °FOvercast.6 mph70%29.84 "Hg16 mi
6:00 AM59 °FOvercast.8 mph69%29.82 "Hg9 mi
Weather by CustomWeather, © 2016

See weather overviewHow to use our weather pages